CAPE
1630 1735 1658 1315 20 30 0 46 53 43 58 28 28 54 131 122 34 0 33 137 327 409 920 1183 1868 1912 1415 1694 1797 1238 811 817 945 725 633 494 594 535 559 615 644 750 706 702 779 894 1143 955 1134
1735 1851 1946 1133 57 42 51 62 82 79 65 93 165 245 189 174 94 20 99 311 596 828 1071 1408 2193 2079 1626 1426 1726 1565 900 825 808 745 705 630 590 629 601 550 568 734 858 835 998 1115 1189 1323 1028
2194 2213 1898 257 1 64 88 58 56 103 102 59 154 212 212 181 0 33 171 443 952 841 1042 1204 1999 1857 1309 1511 1424 1168 1270 1106 1143 1052 914 861 817 840 825 827 909 1022 1048 863 907 1216 1302 1442 1424
2280 2271 1239 0 0 87 52 74 27 43 59 75 135 234 203 124 30 251 429 843 867 893 965 1611 1634 1608 1597 1376 1033 996 1021 1071 1286 1042 995 1026 1076 993 958 1031 1132 1042 1014 1257 1282 1156 1385 1377 1348
908 838 0 0 32 46 68 3 17 91 26 90 105 188 135 170 298 298 534 906 825 948 972 1084 2011 1716 1391 1223 1366 1293 1464 1496 1063 1045 1139 948 966 1088 1024 980 978 979 1261 1189 1191 1187 912 909 1007
122 5 0 0 50 59 8 87 167 167 181 39 101 111 157 333 308 381 394 852 924 1096 1138 1004 1601 1904 1891 1027 1165 1440 1436 1322 882 1045 1253 1276 906 779 1190 1215 1259 1249 1146 1345 1371 1227 763 664 538
47 0 0 1 76 33 0 65 18 0 0 55 79 189 259 356 315 331 315 706 877 1380 1493 1288 1436 1597 1841 1100 991 1481 1419 1468 1605 1338 1236 1260 1423 1467 1478 1183 1123 1093 1200 1334 1231 1106 1218 679 361
75 9 8 0 0 3 22 58 79 70 0 23 0 90 268 332 287 272 487 614 854 1378 1654 1850 1736 1654 1489 999 1264 1290 1396 1407 1491 1485 1268 1329 1206 923 731 1257 1185 1203 1215 1320 1355 1380 869 815 277
58 26 15 25 1 3 54 98 108 72 25 63 94 56 168 265 507 673 692 724 860 1221 1425 1756 1723 1618 1411 908 1251 1231 1671 1853 1530 1296 1367 1412 1036 1042 1125 978 1075 1323 1445 1461 1298 1266 1418 1184 715
80 12 117 211 156 10 56 89 114 82 86 97 218 244 254 338 634 612 607 566 789 957 1127 1535 1470 1424 1293 1048 1175 1128 1154 1216 1268 949 843 982 777 750 846 1176 1275 1425 1367 1400 1574 1252 610 1171 823
184 180 310 403 241 30 58 108 141 123 123 114 166 247 225 533 675 660 569 576 617 736 984 1263 1320 1272 1160 893 1097 1194 901 905 986 1047 924 708 402 400 630 786 832 713 900 617 717 952 24 55 415
103 130 302 466 132 138 184 128 173 165 149 116 171 239 318 636 690 720 752 760 718 603 768 981 1116 1037 960 707 1019 1135 933 969 1217 1143 669 462 405 507 685 758 813 510 603 286 252 486 296 90 87
181 121 326 288 485 269 323 232 287 252 235 148 182 256 405 649 665 722 789 775 764 578 619 714 801 772 676 563 795 926 904 688 814 595 533 512 600 621 711 617 461 544 609 393 234 309 313 370 243
180 199 163 307 332 292 231 249 312 319 276 298 229 183 248 477 694 777 767 726 573 467 486 469 532 501 543 646 697 839 661 568 506 487 494 527 643 604 552 691 637 806 835 695 583 408 351 289 271
168 136 122 269 281 278 310 341 343 314 246 308 336 295 305 369 655 718 724 725 611 455 482 383 515 553 641 729 851 980 642 886 961 960 1002 886 862 868 670 720 840 876 978 998 872 603 591 463 494
171 137 59 31 149 101 27 20 244 275 195 352 431 427 404 416 665 745 720 717 584 492 372 606 784 796 754 714 711 888 783 683 870 944 1199 1067 1024 862 883 897 967 854 865 904 881 714 629 142 146
56 21 85 26 52 177 50 20 253 243 319 292 308 495 562 538 651 741 713 689 504 504 364 510 717 917 972 951 879 984 874 810 813 943 1158 1170 1114 1140 1068 947 969 876 227 276 492 478 202 157 558
0 12 15 17 49 259 34 28 253 301 282 330 388 278 382 505 513 613 601 513 460 399 352 435 646 785 897 1000 992 984 1147 1071 1031 967 798 1157 1298 1493 1148 1063 865 945 297 250 129 20 8 261 540
4 16 16 19 268 244 124 68 213 314 311 298 298 317 289 124 117 163 342 307 373 402 376 436 611 751 847 978 906 1120 1217 1245 1235 987 812 1194 1111 1081 1220 1067 1147 783 338 137 132 0 299 248 193
9 12 29 41 218 196 71 114 118 258 317 339 309 323 374 339 139 212 270 282 330 443 344 423 568 711 885 980 963 954 920 1162 1201 1140 867 1072 806 1010 1444 1252 1157 1011 654 177 0 0 40 256 206
32 1 2 11 59 202 78 32 143 179 131 217 304 317 399 497 535 298 252 282 294 378 325 397 571 710 854 882 804 765 1195 1362 1130 1040 1072 788 892 1201 1415 1215 1068 971 661 127 28 0 0 61 226
41 0 0 3 17 20 37 44 45 52 332 281 304 324 401 466 535 560 399 271 309 301 383 480 640 753 708 649 722 860 862 1123 1464 1554 1153 1000 1434 1520 1335 1383 1060 742 328 88 95 0 0 0 0
15 0 0 0 10 26 37 57 71 68 182 304 340 271 392 495 545 654 544 487 314 347 367 476 630 771 707 640 540 700 681 848 1109 1319 1284 1274 1663 1590 1598 1536 1212 767 214 124 62 1 0 0 0
0 0 0 1 4 3 11 57 100 76 79 216 277 441 462 546 548 652 695 537 533 427 375 477 599 763 782 677 572 661 686 813 1091 1248 1383 1325 1199 1466 1503 1586 1264 907 152 182 137 17 0 0 0
0 0 0 3 10 3 4 43 101 116 62 117 263 349 610 697 697 789 811 750 657 682 555 484 578 697 746 676 627 718 792 811 990 1256 1313 1291 934 1464 1635 1570 1245 960 517 216 106 33 0 0 0
0 0 0 0 0 0 0 36 64 3 67 134 386 424 364 382 498 794 876 815 716 769 746 646 714 637 560 893 661 675 809 883 900 1135 1237 1137 876 1507 1689 1621 1357 1096 807 212 198 14 0 0 0
0 0 0 0 0 0 0 0 0 61 158 276 376 360 421 434 467 552 746 839 758 829 798 746 772 804 611 721 930 698 735 905 948 1039 1208 1223 1189 1187 1579 1684 1514 1291 953 312 294 4 0 0 0
0 0 0 0 0 0 0 0 0 19 204 375 491 450 281 332 424 398 566 677 806 854 821 769 738 714 794 641 785 981 850 956 979 1014 1090 1224 1270 1365 1317 1551 1539 1250 995 501 416 90 0 0 0
0 0 0 0 0 0 0 0 0 26 387 733 770 800 746 577 417 411 480 836 960 895 857 857 859 790 599 461 618 835 993 1012 1224 1301 1381 1477 1428 1464 1252 1505 1464 1235 1058 745 481 253 20 0 0
0 0 0 0 0 0 0 0 71 233 529 707 729 852 830 719 697 479 621 742 872 1046 1008 974 927 835 347 10 738 801 945 1117 1252 1366 1398 1694 1737 1659 1637 1234 1416 1280 1102 978 531 371 103 0 0
CIN
-88 -94 -137 -174 -109 -85 -7 -35 -4 -13 -16 -62 -93 -70 -106 -148 -122 0 -156 -54 -13 -19 -2 -1 0 0 0 0 0 0 -16 0 0 0 0 -3 -3 -5 -6 -7 -6 -4 0 -1 -3 -5 -6 -7 -5
-100 -90 -105 -185 -71 -46 -47 -36 -54 -29 -24 -136 -112 -107 -135 -123 -178 -179 -106 -23 -12 -7 -4 -3 0 0 0 0 0 0 0 -6 0 0 0 0 -1 -2 -2 -6 -10 -4 0 0 0 0 0 0 -2
-113 -116 -111 -58 -42 -75 -40 -47 -90 -39 -28 -134 -152 -150 -151 -132 0 -172 -140 -46 -7 -7 -6 -2 0 0 0 0 0 0 0 0 0 0 -5 -1 0 -1 0 0 0 -1 0 0 0 0 -1 -6 -2
-136 -124 -152 -63 -3 -28 -53 -15 -160 -105 -90 -190 -186 -167 -158 -169 -218 -144 -99 -12 -8 -8 -4 0 -1 0 0 0 0 0 0 0 0 0 0 0 0 0 0 0 0 0 0 0 0 -5 -2 -3 -1
-313 -221 0 0 -73 -38 -18 -7 -26 -142 -41 -183 -197 -169 -193 -152 -139 -149 -94 -20 -39 -18 -4 -4 0 0 0 0 0 0 0 0 -1 -5 0 0 0 0 0 0 0 0 -4 -2 -1 -5 -2 -4 -2
-247 -106 0 0 -45 -29 -16 -81 -129 -164 -196 -262 -245 -217 -155 -118 -163 -131 -113 -36 -40 -23 -15 -22 0 0 0 0 0 0 0 0 -6 -1 0 0 0 0 -6 0 0 0 0 0 -1 -2 -3 -11 -16
-276 0 0 -39 -66 -61 0 -96 -164 0 0 -227 -247 -201 -164 -130 -141 -138 -128 -59 -41 -3 -2 -11 -2 0 0 -4 -5 0 0 0 0 -1 0 0 -1 -1 0 0 0 0 -1 -1 0 -1 -1 -7 -23
-337 -235 -168 0 0 -18 -138 -110 -177 -133 -6 -230 -1 -247 -178 -178 -174 -164 -102 -68 -35 -4 -1 0 -1 0 -2 -16 -5 0 0 0 -1 0 0 0 0 -1 -1 0 0 0 0 -1 -1 0 -1 -2 -24
-310 -172 -174 -131 -8 -22 -176 -166 -141 -34 -93 -156 -164 -304 -261 -210 -140 -79 -58 -42 -29 -9 -8 0 0 -1 -7 -23 -8 -11 0 0 0 -1 0 -2 -1 -2 -3 -13 -9 -1 -1 -2 0 0 0 -2 -1
-168 -87 -168 -204 -242 -97 -207 -214 -121 -45 -46 -196 -253 -270 -208 -184 -125 -131 -122 -133 -80 -44 -24 -1 -5 -4 -8 -36 -13 -10 -5 -6 -6 -22 -33 -19 -27 -31 -39 -25 -7 -2 -2 -6 0 0 -27 -2 -4
-318 -205 -209 -189 -247 -66 -201 -207 -168 -79 -51 -40 -275 -284 -239 -164 -123 -126 -142 -137 -134 -97 -58 -45 -30 -22 -37 -53 -15 -22 -49 -38 -36 -32 -37 -41 -65 -42 -65 -61 -72 -41 -40 -57 -45 -21 -36 -123 -44
-204 -254 -241 -219 -295 -167 -218 -149 -166 -114 -63 -50 -274 -310 -240 -158 -163 -168 -153 -123 -128 -141 -112 -88 -69 -58 -52 -72 -57 -61 -68 -51 -40 -43 -72 -81 -39 -40 -59 -94 -48 -41 -51 -95 -49 -60 -35 -46 -85
-148 -237 -237 -236 -233 -81 -179 -85 -58 -98 -87 -239 -289 -265 -229 -190 -166 -141 -132 -121 -129 -170 -171 -148 -126 -117 -125 -128 -92 -102 -91 -94 -74 -88 -75 -53 -59 -56 -45 -53 -49 -42 -50 -43 -56 -39 -12 -44 -47
-264 -267 -153 -106 -93 -63 -55 -89 -101 -132 -127 -316 -308 -235 -231 -200 -176 -153 -143 -145 -177 -206 -209 -200 -188 -181 -20 -18 -45 -113 -65 -21 -9 -14 -32 -46 -50 -59 -21 -34 -80 -27 -31 -31 -31 -36 -72 -83 -80
-255 -159 -226 -95 -106 -69 -54 -66 -60 -180 -287 -361 -307 -167 -137 -102 -168 -159 -149 -152 -190 -220 -38 -58 -40 -47 -55 -52 -63 -85 -35 -21 -30 -58 -58 -29 -40 -51 -23 -43 -40 -39 -43 -43 -49 -57 -52 -73 -93
-189 -178 -232 -123 -164 -323 -116 -100 -174 -57 -68 -371 -349 -275 -187 -173 -204 -175 -150 -137 -161 -171 -46 -49 -52 -51 -65 -87 -66 -73 -88 -94 -61 -25 -50 -50 -48 -63 -31 -46 -51 -31 -46 -47 -50 -40 -99 -26 -53
-174 -156 -148 -143 -225 -299 -110 -162 -209 -86 -60 -62 -353 -309 -249 -220 -212 -161 -112 -122 -133 -137 -110 -60 -51 -61 -66 -78 -75 -36 -33 -33 -34 -49 -56 -154 -149 -132 -43 -33 -36 -33 -27 -52 -40 -25 -21 -28 -76
0 -110 -119 -166 -251 -277 -176 -101 -173 -194 -80 -63 -44 -56 -291 -223 -203 -174 -112 -103 -101 -96 -56 -47 -38 -58 -59 -69 -74 -64 -29 -22 -22 -11 -31 -135 -125 -113 -44 -46 -35 -55 -28 -9 -4 -2 -3 -38 -57
-106 -103 -139 -125 -267 -239 -231 -209 -212 -265 -202 -166 -61 -55 -49 -203 -167 -183 -185 -154 -64 -63 -85 -60 -43 -55 -68 -79 -105 -77 -43 -72 -58 -26 -28 -106 -44 -21 -52 -50 -51 -33 -14 -16 -10 0 -37 -21 -73
-152 -106 -95 -100 -290 -206 -165 -242 -263 -232 -289 -219 -207 -74 -43 -33 -195 -168 -142 -129 -140 -67 -77 -21 -52 -43 -70 -90 -113 -80 -42 -62 -44 -45 -59 -67 -29 -156 -41 -27 -32 -35 -14 -27 0 0 -44 -31 -44
-127 -164 -79 -97 -260 -232 -180 -117 -268 -122 -158 -301 -224 -122 -67 -37 -29 -64 -141 -117 -91 -106 -265 -143 -57 -52 -100 -89 -118 -130 -151 -99 -61 -51 -70 -22 -32 -149 -36 -31 -48 -22 -15 -73 -160 0 0 -14 -19
-101 0 0 -108 -97 -150 -104 -81 -78 -144 -101 -442 -245 -182 -74 -60 -25 -23 -44 -111 -71 -66 -252 -202 -116 -90 -71 -70 -144 -163 -122 -104 -80 -37 -29 -167 -148 -56 -144 -33 -33 -45 -75 -162 -165 0 0 0 0
-69 0 0 0 -86 -172 -121 -113 -38 -533 -345 -164 -418 -269 -101 -83 -22 -12 -29 -31 -54 -47 -272 -191 -163 -69 -73 -104 -194 -146 -153 -128 -91 -56 -39 -59 -42 -41 -59 -34 -38 -42 -99 -328 -188 -25 0 0 0
0 0 0 -49 -64 -142 -100 -109 -57 -71 -183 -204 -404 -375 -172 -88 -63 -27 -18 -33 -30 -53 -54 -38 -97 -22 -10 -111 -230 -151 -95 -153 -96 -57 -40 -37 -43 -67 -60 -50 -30 -35 -135 -158 -125 -138 0 0 0
0 0 0 -76 -161 -7 -68 -115 -89 -78 -55 -26 -75 -309 -232 -177 -117 -57 -25 -19 -20 -34 -49 -41 -42 -39 -21 -66 -223 -172 -130 -124 -113 -54 -41 -34 -128 -104 -79 -47 -27 -39 -58 -123 -103 -114 0 0 0
0 0 0 0 -17 0 0 -110 -65 -70 -291 -25 -66 -116 -53 -233 -177 -81 -50 -21 -25 -16 -33 -37 -37 -57 -40 -24 -123 -226 -156 -102 -145 -74 -49 -44 -140 -96 -65 -43 -31 -34 -40 -105 -86 -129 0 0 0
0 0 0 0 0 0 0 0 0 -276 -269 -129 -51 -18 -14 -25 -96 -145 -92 -41 -18 -16 -19 -31 -23 -33 -59 -35 -33 -161 -230 -125 -170 -116 -61 -37 -32 -97 -74 -52 -39 -42 -43 -113 -74 -12 0 0 0
0 0 0 0 0 0 0 0 0 -51 -161 -133 -224 -242 -68 -11 -19 -243 -91 -13 -15 -21 -24 -28 -22 -28 -30 -41 -41 -32 -241 -236 -177 -165 -110 -71 -40 -33 -137 -73 -54 -59 -52 -75 -74 -121 0 0 0
0 0 0 0 0 0 0 0 0 -324 -166 -178 -123 -94 -90 -124 -4 -7 -5 -2 -9 -19 -20 -16 -14 -20 -24 -278 -268 -49 -37 -185 -245 -200 -132 -65 -51 -44 -110 -93 -78 -69 -56 -54 -92 -108 -112 0 0
0 0 0 0 0 0 0 0 -605 -599 -137 -95 -131 -140 -140 -134 -132 -314 -175 -8 -8 -5 -12 -14 -10 -7 -70 -30 -46 -54 -56 -49 -377 -317 -208 -109 -67 -58 -46 -158 -45 -91 -70 -52 -79 -101 -167 0 0
Wind_Speed
26 19 14 10 nan nan nan nan nan nan nan nan nan nan 20 22 nan nan nan 14 16 24 18 10 6 5 7 8 4 3 7 5 7 12 14 15 17 20 20 18 17 16 17 16 16 17 16 12 13
25 25 17 10 nan nan nan nan nan nan nan nan 13 16 18 15 nan nan nan 19 22 15 12 11 5 5 4 6 3 4 6 4 6 12 12 15 17 19 21 21 20 18 18 17 17 18 17 17 14
26 28 18 15 nan nan nan nan nan 13 12 nan 11 15 14 15 nan nan 14 11 11 13 10 8 4 4 7 3 4 6 5 4 7 12 11 15 18 20 20 21 22 21 21 19 18 19 20 19 16
27 25 22 nan nan nan nan nan nan nan nan nan 5 10 10 9 nan 13 9 9 9 10 9 6 5 7 6 6 8 6 7 6 9 9 10 13 16 17 16 18 19 19 18 20 20 19 19 21 20
20 20 nan nan nan nan nan nan nan nan nan nan 9 10 7 10 2 7 6 7 7 8 12 9 9 8 7 7 8 9 9 8 7 9 10 13 15 14 16 18 17 17 16 17 20 18 16 18 20
23 nan nan nan nan nan nan nan 12 12 8 nan 3 8 10 7 8 4 5 7 4 7 10 10 10 10 9 8 8 9 8 7 8 10 9 13 14 15 16 15 13 15 16 16 17 12 12 18 16
nan nan nan nan nan nan nan nan nan nan nan nan nan 3 10 9 5 3 5 5 4 8 7 10 11 12 9 8 8 8 7 7 7 7 12 11 12 12 15 16 15 17 20 18 17 15 12 17 20
nan nan nan nan nan nan nan nan nan nan nan nan nan nan 9 10 4 2 6 6 7 8 8 8 10 11 10 10 8 6 5 4 4 6 11 11 11 12 11 12 16 17 18 18 12 13 14 18 22
nan nan nan nan nan nan nan nan 17 nan nan nan nan nan 6 8 4 3 3 6 8 9 11 9 9 11 9 10 9 4 6 6 5 8 11 10 7 9 9 10 13 15 14 13 12 14 12 14 17
nan nan 13 20 17 nan nan nan 16 nan nan nan 4 8 7 7 8 4 5 4 6 9 11 11 10 8 9 9 8 5 6 3 3 5 5 5 8 8 8 9 13 15 17 15 14 12 10 13 11
8 12 8 13 16 nan nan 16 12 13 11 10 12 10 8 6 4 3 5 4 5 9 9 9 9 9 9 8 4 6 4 4 6 6 6 7 7 7 8 7 9 7 9 7 9 11 nan nan 10
10 19 14 13 12 12 16 20 13 14 17 13 19 18 12 8 6 7 5 1 2 5 7 7 7 7 7 5 3 3 2 4 6 6 6 5 6 7 9 8 9 9 7 8 8 9 9 nan nan
11 20 16 16 13 13 14 18 21 13 9 14 18 19 16 13 10 5 3 3 1 3 4 5 3 4 3 3 1 2 4 1 3 4 4 6 6 6 5 6 6 8 8 8 8 8 8 7 6
12 18 19 21 14 11 11 14 13 12 12 17 20 24 21 14 11 5 4 2 1 3 3 3 2 0 2 3 3 3 3 2 4 5 4 7 5 6 5 6 7 7 9 9 8 7 6 6 6
5 8 20 16 10 10 10 9 13 17 15 18 19 20 21 19 14 14 11 7 3 3 6 3 3 2 2 5 4 1 2 1 4 7 8 8 5 9 8 8 7 9 8 9 6 4 4 4 5
2 2 nan nan 9 14 nan nan 11 17 20 13 15 16 18 18 22 19 15 12 8 2 0 2 2 3 6 6 2 2 1 5 6 6 7 6 8 10 11 9 10 7 6 6 5 3 2 0 1
nan nan nan nan nan 9 nan nan 13 15 20 17 12 17 16 17 19 17 16 14 14 12 5 4 5 6 7 4 1 2 2 2 6 4 5 7 8 9 7 7 6 7 6 5 4 3 2 1 4
nan nan nan nan nan 15 nan nan 13 18 18 25 14 12 16 16 21 18 17 15 13 13 9 6 6 5 5 1 5 7 7 4 3 1 3 7 5 6 7 7 7 8 8 6 4 nan nan 3 5
nan nan nan nan 1 3 12 nan 15 16 13 18 22 15 14 16 17 18 16 12 11 11 9 10 8 8 6 1 3 3 5 5 3 3 1 2 1 5 9 5 11 13 13 10 7 nan 5 4 3
nan nan nan nan 13 9 nan 9 11 12 23 26 27 22 21 15 10 10 13 12 13 14 14 12 14 9 8 4 3 3 2 3 2 4 2 1 4 4 9 13 14 16 17 14 nan nan nan 4 5
nan nan nan nan nan 12 nan nan 8 13 8 15 18 23 16 19 15 11 14 16 16 15 16 16 16 12 9 5 5 8 7 6 6 7 7 2 4 10 13 15 17 21 20 9 nan nan nan nan 5
nan nan nan nan nan nan nan nan nan nan 14 11 14 16 21 15 9 7 13 16 19 20 17 16 14 11 6 4 2 6 4 4 2 3 3 5 7 11 15 15 20 22 18 nan nan nan nan nan nan
nan nan nan nan nan nan nan nan nan nan 11 11 8 18 19 15 14 13 14 18 21 16 16 15 11 10 8 8 6 4 4 5 5 5 8 7 7 10 13 17 19 22 18 10 nan nan nan nan nan
nan nan nan nan nan nan nan nan 18 nan nan 9 6 13 16 15 19 16 12 8 10 10 12 8 7 7 6 9 9 10 6 6 6 5 6 6 6 8 11 15 18 21 20 9 11 nan nan nan nan
nan nan nan nan nan nan nan nan 11 12 nan 7 4 15 17 11 14 19 20 16 11 12 12 10 12 8 8 8 9 10 11 10 10 6 3 5 3 6 10 15 19 22 22 4 9 nan nan nan nan
nan nan nan nan nan nan nan nan nan nan nan 8 9 5 15 17 13 19 26 24 19 14 14 14 15 13 9 10 12 9 8 7 7 6 4 4 3 4 10 15 18 20 18 5 5 nan nan nan nan
nan nan nan nan nan nan nan nan nan nan 10 16 11 5 10 16 17 21 18 23 24 15 16 17 15 14 13 9 10 9 5 7 8 8 4 4 1 3 10 15 18 19 17 10 1 nan nan nan nan
nan nan nan nan nan nan nan nan nan nan 14 16 16 9 7 11 21 22 18 20 22 19 11 12 13 15 12 7 0 4 8 6 6 5 4 3 2 5 9 12 14 15 15 13 8 nan nan nan nan
nan nan nan nan nan nan nan nan nan nan 9 4 7 3 4 9 13 22 13 17 21 9 8 12 12 15 20 20 6 2 3 6 7 6 3 2 5 6 8 12 14 16 16 14 11 8 nan nan nan
nan nan nan nan nan nan nan nan nan 5 3 3 5 3 1 5 10 17 9 14 16 9 9 10 15 26 35 nan 9 5 3 6 9 10 8 7 7 9 10 13 16 18 18 16 15 15 14 nan nan
Wind_Direction
30 42 67 67 nan nan nan nan nan nan nan nan nan nan 90 100 nan nan nan 123 118 112 101 101 107 124 106 101 87 87 70 43 40 52 42 37 29 34 43 39 29 18 35 31 24 26 27 26 31
44 41 59 69 nan nan nan nan nan nan nan nan 122 114 119 104 nan nan nan 48 71 82 103 114 110 112 94 80 85 54 65 57 58 58 48 51 47 44 40 42 39 27 31 38 33 38 33 24 20
44 61 63 45 nan nan nan nan nan 48 70 nan 94 125 118 114 nan nan 82 57 103 103 110 99 95 78 74 74 63 51 54 53 72 73 58 56 53 54 51 43 42 41 36 35 36 40 33 26 24
62 69 72 nan nan nan nan nan nan nan nan nan 107 130 119 84 nan 95 44 63 97 110 114 91 58 58 49 43 48 58 57 50 59 63 67 56 53 49 49 50 37 39 42 32 35 41 39 30 22
57 65 nan nan nan nan nan nan nan nan nan nan 107 113 113 106 54 16 50 61 50 94 95 83 68 64 55 58 62 53 58 54 71 76 55 44 44 46 40 37 31 27 29 34 37 39 41 50 45
44 nan nan nan nan nan nan nan 97 101 91 nan 160 122 107 27 333 55 47 74 61 66 91 89 65 68 57 54 46 53 56 69 65 78 63 54 43 33 37 41 42 31 31 29 40 30 34 49 32
nan nan nan nan nan nan nan nan nan nan nan nan nan 105 107 76 15 92 123 113 93 87 95 100 99 85 69 64 52 52 48 49 53 59 61 46 51 38 32 41 45 36 34 27 39 42 40 40 30
nan nan nan nan nan nan nan nan nan nan nan nan nan nan 57 79 5 186 143 138 117 108 108 104 106 111 110 100 60 63 62 48 43 40 58 54 45 45 41 46 53 39 33 42 49 46 39 41 42
nan nan nan nan nan nan nan nan 73 nan nan nan nan nan 11 323 286 257 148 138 133 128 145 138 131 122 122 110 110 86 63 39 8 44 47 44 59 73 79 46 52 49 48 34 24 43 54 51 44
nan nan 48 73 64 nan nan nan 43 nan nan nan 208 253 308 321 352 346 45 61 122 124 138 132 129 128 120 123 140 116 97 133 137 97 74 63 75 82 57 57 51 46 46 33 27 12 60 66 63
47 50 75 89 85 nan nan 53 64 23 80 57 7 336 343 358 56 16 77 123 104 126 133 117 124 131 119 126 113 99 127 109 95 84 103 100 91 81 65 42 47 59 52 34 37 36 nan nan 62
77 79 56 40 96 86 73 67 68 33 61 20 1 347 1 22 45 49 34 282 127 123 120 132 133 124 110 112 69 78 69 82 94 89 74 77 82 81 66 49 41 40 27 36 25 35 31 nan nan
77 85 68 110 93 104 79 63 59 59 21 5 359 357 8 27 43 72 143 188 166 120 124 133 157 126 126 82 44 58 66 50 128 103 111 72 76 52 61 50 43 26 17 6 15 14 22 25 24
83 91 104 121 116 118 97 65 48 44 349 356 7 17 17 21 23 29 31 45 131 234 200 200 183 177 302 346 16 65 17 214 164 116 102 80 76 70 38 40 28 21 357 348 356 3 10 359 356
57 83 114 109 97 104 78 60 64 12 359 4 14 28 27 25 20 37 28 16 35 150 222 215 237 245 351 25 21 63 347 138 120 130 108 85 52 46 28 10 20 29 360 346 355 19 3 356 346
321 344 nan nan 85 81 nan nan 25 11 354 13 18 32 46 41 28 25 25 13 350 320 243 142 94 41 44 43 70 258 285 113 111 91 84 60 49 39 37 35 33 28 13 1 356 6 12 66 229
nan nan nan nan nan 95 nan nan 14 2 355 359 30 39 42 57 46 36 29 19 355 356 351 27 40 22 40 59 124 233 143 122 95 53 95 74 44 32 30 28 19 3 350 346 327 282 304 292 238
nan nan nan nan nan 98 nan nan 10 5 4 16 18 37 48 60 55 37 23 18 8 357 358 8 26 3 353 325 243 219 179 202 120 91 83 100 56 353 5 13 350 342 331 321 304 nan nan 279 273
nan nan nan nan 56 131 88 nan 25 10 5 6 15 15 32 50 63 41 24 14 14 15 2 22 31 17 341 153 251 228 173 179 170 231 247 140 197 344 339 358 342 327 311 303 297 nan 251 251 273
nan nan nan nan 178 179 nan 89 60 28 26 18 9 12 25 37 20 38 27 5 7 18 31 19 34 21 21 36 247 248 222 147 229 250 219 221 273 334 338 334 342 339 326 278 nan nan nan 259 207
nan nan nan nan nan 188 nan nan 71 51 37 25 36 27 26 18 21 23 12 9 15 13 26 32 32 26 19 0 256 230 231 216 221 213 203 188 335 347 342 342 346 340 344 294 nan nan nan nan 219
nan nan nan nan nan nan nan nan nan nan 23 8 30 28 21 13 357 13 15 11 12 24 32 35 34 25 17 355 321 311 296 256 239 252 287 318 359 348 340 354 346 340 337 nan nan nan nan nan nan
nan nan nan nan nan nan nan nan nan nan 12 22 25 31 22 19 346 352 2 12 15 357 27 36 29 41 25 17 21 332 278 272 263 262 290 332 357 6 1 360 344 342 337 294 nan nan nan nan nan
nan nan nan nan nan nan nan nan 133 nan nan 60 2 11 39 10 7 348 351 337 356 345 332 1 16 9 27 12 26 24 6 302 287 312 347 35 34 17 9 1 354 352 351 295 214 nan nan nan nan
nan nan nan nan nan nan nan nan 103 129 nan 62 109 34 33 351 356 352 336 337 342 345 345 335 342 350 342 12 10 26 38 31 30 7 4 27 44 9 8 6 4 10 4 339 206 nan nan nan nan
nan nan nan nan nan nan nan nan nan nan nan 140 174 45 21 15 359 352 357 359 354 11 352 340 339 334 325 341 356 4 28 47 43 28 348 17 31 4 358 7 9 17 13 8 220 nan nan nan nan
nan nan nan nan nan nan nan nan nan nan 184 181 198 23 19 19 12 353 337 350 355 355 4 1 344 337 336 355 334 337 11 29 31 32 34 121 292 347 359 5 6 12 16 16 287 nan nan nan nan
nan nan nan nan nan nan nan nan nan nan 164 177 187 172 75 22 4 355 333 346 349 343 346 349 351 344 313 276 237 357 351 28 358 341 56 86 341 334 338 349 357 359 3 5 5 nan nan nan nan
nan nan nan nan nan nan nan nan nan nan 167 159 119 84 71 27 6 325 287 317 325 311 329 334 328 299 253 222 143 126 46 13 358 346 332 304 299 328 332 333 337 344 344 348 349 346 nan nan nan
nan nan nan nan nan nan nan nan nan 180 121 358 147 178 238 343 319 310 295 297 299 316 319 335 301 297 323 nan 81 38 350 1 2 15 353 312 315 316 330 326 329 335 336 327 333 335 328 nan nan